Location: Audinghen
(50.8518°N, 1.6129°E)
Time: 05:43:36
(UTC+00:00)

Cosmos 1937 Rocket - Pass Details

Date: 07 August 2020
Orbit: 747 x 780 km, 74.0° (Epoch: 23 September)

Event Time Altitude Azimuth Distance (km) Brightness Sun altitude
Exits shadow 03:47:03 - 221° (SW) 2,570 5.6 -6.5°
Reaches altitude 10° 03:47:42 10° 223° (SW) 2,328 5.4 -6.4°
Maximum altitude 03:52:52 53° 300° (WNW) 962 3.9 -5.7°
Drops below altitude 10° 03:58:05 10° 17° (NNE) 2,344 6.9 -5.1°
Sets 04:00:33 0° 23° (NNE) 3,274 7.8 -4.7°
